Pecos, TX

8:38 AM CST on November 20, 2017 (GMT -0600)
Pecos Municipal

Weather History for KPEQ - January, 2012

Change the Weather History Date:

Friday, January 13, 2012

  Actual Average Record
Temperature  
Mean Temperature 41 °F -  
Max Temperature 53 °F 59 °F 84 °F (1957)
Min Temperature 29 °F 28 °F 5 °F (1962)
Degree Days  
Heating Degree Days 24    
Moisture  
Dew Point 24 °F    
Average Humidity 58    
Maximum Humidity 88    
Minimum Humidity 23    
Precipitation  
Precipitation 0.00 in - - ()
Sea Level Pressure  
Sea Level Pressure 30.23 in    
Wind  
Wind Speed 4 mph (NW)    
Max Wind Speed 8 mph    
Max Gust Speed -    
Visibility 10 miles    
Events      
Averages and records for this station are not official NWS values.
T = Trace of Precipitation, MM = Missing Value Source: NWS Daily Summary

Daily Weather History Graph

Daily Weather History Graph

Search for Another Location

Airport or City:

Trip Planner

Search our weather history database for the weather conditions in past years. The results will help you decide how hot, cold, wet, or windy it might be!

Date:

Astronomy

Jan. 13, 2012 Rise Set
Actual Time 7:53 AM CST 6:11 PM CST
Civil Twilight 7:27 AM CST 6:37 PM CST
Nautical Twilight 6:57 AM CST 7:07 PM CST
Astronomical Twilight 6:28 AM CST 7:37 PM CST
Moon 11:03 PM CST (1/13) 10:30 AM CST (1/13)
Length of Visible Light 11h 10m
Length of Day
10h 17m
Waning Gibbous, 78% of the Moon is Illuminated
Jan 13
Waning Gibbous
Jan 16
Last Quarter
Jan 23
New
Jan 30
First Quarter
Feb 7
Full

Hourly Weather History & Observations

Time (CST) Temp. Windchill Dew Point Humidity Pressure Visibility Wind Dir Wind Speed Gust Speed Precip Events Conditions
12:15 AM 33.8 °F 29.6 °F 26.1 °F 73% 30.22 in 10.0 mi East 4.6 mph - N/A   Clear
12:35 AM 33.6 °F 29.4 °F 26.1 °F 74% 30.21 in 10.0 mi East 4.6 mph - N/A   Clear
12:55 AM 33.1 °F 28.7 °F 26.4 °F 77% 30.19 in 10.0 mi East 4.6 mph - N/A   Clear
1:15 AM 32.9 °F - 26.6 °F 78% 30.21 in 10.0 mi Calm Calm - N/A   Clear
1:35 AM 32.9 °F 28.5 °F 26.8 °F 78% 30.20 in 10.0 mi North 4.6 mph - N/A   Clear
1:55 AM 33.4 °F 30.4 °F 25.7 °F 73% 30.19 in 10.0 mi ENE 3.5 mph - N/A   Clear
2:15 AM 33.4 °F 28.1 °F 25.7 °F 73% 30.20 in 10.0 mi North 5.8 mph - N/A   Clear
2:35 AM 33.6 °F 30.6 °F 25.0 °F 71% 30.20 in 10.0 mi NNE 3.5 mph - N/A   Clear
3:15 AM 33.1 °F 28.7 °F 24.8 °F 72% 30.19 in 10.0 mi NE 4.6 mph - N/A   Clear
3:35 AM 33.3 °F 28.9 °F 24.4 °F 70% 30.20 in 10.0 mi North 4.6 mph - N/A   Clear
3:55 AM 33.6 °F 29.4 °F 24.1 °F 68% 30.19 in 10.0 mi North 4.6 mph - N/A   Clear
4:15 AM 32.9 °F 27.5 °F 25.0 °F 73% 30.20 in 10.0 mi NNW 5.8 mph - N/A   Clear
4:35 AM 32.2 °F - 26.2 °F 79% 30.20 in 10.0 mi Calm Calm - N/A   Clear
4:55 AM 32.0 °F 26.4 °F 26.6 °F 80% 30.22 in 10.0 mi NW 5.8 mph - N/A   Clear
5:15 AM 32.0 °F 26.4 °F 26.8 °F 81% 30.23 in 10.0 mi WNW 5.8 mph - N/A   Clear
5:35 AM 32.0 °F 28.7 °F 27.0 °F 82% 30.23 in 10.0 mi NW 3.5 mph - N/A   Clear
5:55 AM 32.0 °F 26.4 °F 26.6 °F 80% 30.22 in 10.0 mi North 5.8 mph - N/A   Clear
6:15 AM 32.2 °F 27.7 °F 26.4 °F 79% 30.23 in 10.0 mi NNW 4.6 mph - N/A   Clear
6:55 AM 32.0 °F 27.5 °F 25.9 °F 78% 30.23 in 10.0 mi NNW 4.6 mph - N/A   Clear
7:15 AM 31.6 °F 26.0 °F 26.4 °F 81% 30.24 in 10.0 mi NNW 5.8 mph - N/A   Clear
7:35 AM 31.6 °F 28.3 °F 26.4 °F 81% 30.24 in 10.0 mi North 3.5 mph - N/A   Clear
7:55 AM 31.6 °F - 25.9 °F 79% 30.24 in 10.0 mi Calm Calm - N/A   Clear
8:15 AM 30.7 °F - 25.7 °F 82% 30.25 in 10.0 mi Calm Calm - N/A   Clear
8:35 AM 29.8 °F - 25.9 °F 85% 30.25 in 10.0 mi Calm Calm - N/A   Clear
8:55 AM 29.7 °F 26.1 °F 26.4 °F 88% 30.26 in 10.0 mi WSW 3.5 mph - N/A   Clear
9:15 AM 29.8 °F 24.9 °F 26.8 °F 88% 30.26 in 10.0 mi SW 4.6 mph - N/A   Clear
9:35 AM 31.6 °F - 27.7 °F 85% 30.28 in 10.0 mi Calm Calm - N/A   Clear
9:55 AM 33.4 °F 28.1 °F 26.8 °F 77% 30.29 in 10.0 mi NNW 5.8 mph - N/A   Clear
10:15 AM 35.1 °F 32.2 °F 25.9 °F 69% 30.30 in 10.0 mi NW 3.5 mph - N/A   Clear
10:35 AM 36.1 °F 32.3 °F 24.4 °F 63% 30.29 in 10.0 mi NW 4.6 mph - N/A   Clear
10:55 AM 37.4 °F 32.8 °F 24.8 °F 60% 30.29 in 10.0 mi NW 5.8 mph - N/A   Clear
11:15 AM 38.7 °F 34.3 °F 24.3 °F 56% 30.29 in 10.0 mi NW 5.8 mph - N/A   Clear
11:35 AM 39.9 °F 36.7 °F 23.7 °F 52% 30.28 in 10.0 mi NW 4.6 mph - N/A   Clear
11:55 AM 41.2 °F 38.2 °F 23.7 °F 50% 30.28 in 10.0 mi WNW 4.6 mph - N/A   Clear
12:15 PM 42.4 °F 39.6 °F 24.4 °F 49% 30.27 in 10.0 mi NW 4.6 mph - N/A   Clear
12:35 PM 43.3 °F - 24.8 °F 48% 30.26 in 10.0 mi Calm Calm - N/A   Clear
1:15 PM 46.0 °F 44.8 °F 24.4 °F 43% 30.25 in 10.0 mi West 3.5 mph - N/A   Clear
1:35 PM 47.3 °F - 24.6 °F 41% 30.24 in 10.0 mi NW 5.8 mph - N/A   Clear
1:55 PM 48.4 °F - 23.9 °F 38% 30.24 in 10.0 mi NW 6.9 mph - N/A   Clear
2:15 PM 49.5 °F - 22.6 °F 35% 30.23 in 10.0 mi NW 4.6 mph - N/A   Clear
2:35 PM 50.4 °F - 23.2 °F 35% 30.22 in 10.0 mi NW 8.1 mph - N/A   Clear
2:55 PM 51.1 °F - 22.3 °F 32% 30.20 in 10.0 mi NW 3.5 mph - N/A   Clear
3:15 PM 52.0 °F - 21.0 °F 30% 30.20 in 10.0 mi West 6.9 mph - N/A   Clear
3:35 PM 52.7 °F - 18.9 °F 26% 30.20 in 10.0 mi West 4.6 mph - N/A   Clear
3:55 PM 53.2 °F - 16.7 °F 24% 30.19 in 10.0 mi WNW 5.8 mph - N/A   Clear
4:15 PM 53.6 °F - 17.1 °F 24% 30.20 in 10.0 mi West 8.1 mph - N/A   Clear
4:35 PM 53.8 °F - 16.5 °F 23% 30.20 in 10.0 mi West 8.1 mph - N/A   Clear
4:55 PM 53.8 °F - 16.3 °F 23% 30.20 in 10.0 mi West 8.1 mph - N/A   Clear
5:15 PM 53.6 °F - 16.9 °F 24% 30.20 in 10.0 mi West 5.8 mph - N/A   Clear
5:35 PM 53.1 °F - 18.5 °F 26% 30.20 in 10.0 mi Calm Calm - N/A   Clear
5:55 PM 52.2 °F - 19.0 °F 27% 30.21 in 10.0 mi Calm Calm - N/A   Clear
6:15 PM 51.8 °F - 18.7 °F 27% 30.22 in 10.0 mi Calm Calm - N/A   Clear
6:35 PM 49.1 °F - 22.5 °F 35% 30.23 in 10.0 mi Calm Calm - N/A   Clear
6:55 PM 45.7 °F - 21.6 °F 38% 30.23 in 10.0 mi Calm Calm - N/A   Clear
7:15 PM 43.7 °F - 21.7 °F 42% 30.23 in 10.0 mi Calm Calm - N/A   Clear
7:55 PM 41.0 °F - 22.3 °F 47% 30.24 in 10.0 mi Calm Calm - N/A   Clear
8:15 PM 40.5 °F - 21.4 °F 47% 30.24 in 10.0 mi Calm Calm - N/A   Clear
8:55 PM 37.4 °F 32.1 °F 23.4 °F 57% 30.26 in 10.0 mi SSW 6.9 mph - N/A   Clear
9:15 PM 35.8 °F 30.1 °F 24.4 °F 63% 30.26 in 10.0 mi SW 6.9 mph - N/A   Clear
9:35 PM 34.7 °F 28.8 °F 24.6 °F 67% 30.26 in 10.0 mi SSW 6.9 mph - N/A   Clear
9:55 PM 34.2 °F 29.0 °F 24.3 °F 67% 30.26 in 10.0 mi SSW 5.8 mph - N/A   Clear
10:15 PM 33.3 °F 28.9 °F 24.6 °F 71% 30.26 in 10.0 mi SW 4.6 mph - N/A   Clear
10:35 PM 32.2 °F 28.9 °F 24.6 °F 74% 30.26 in 10.0 mi SW 3.5 mph - N/A   Clear
10:55 PM 31.8 °F 28.5 °F 24.6 °F 75% 30.26 in 10.0 mi South 3.5 mph - N/A   Clear
11:15 PM 29.5 °F 25.9 °F 23.7 °F 79% 30.27 in 10.0 mi South 3.5 mph - N/A   Clear
11:35 PM 29.1 °F 25.4 °F 23.9 °F 81% 30.27 in 10.0 mi SSW 3.5 mph - N/A   Clear
11:55 PM 29.5 °F 24.5 °F 24.3 °F 81% 30.27 in 10.0 mi SSW 4.6 mph - N/A   Clear